Year,Month,Day,Hour,Minute,Value (Times are PST for temperature in C)
2019,09,21,00,00,12.80
2019,09,21,00,01,12.80
2019,09,21,00,02,12.80
2019,09,21,00,03,12.80
2019,09,21,00,04,12.80
2019,09,21,00,05,12.80
2019,09,21,00,06,12.80
2019,09,21,00,07,12.80
2019,09,21,00,08,12.80
2019,09,21,00,09,12.80
2019,09,21,00,10,12.90
2019,09,21,00,11,12.90
2019,09,21,00,12,12.90
2019,09,21,00,13,12.90
2019,09,21,00,14,12.90
2019,09,21,00,15,12.90
2019,09,21,00,16,12.90
2019,09,21,00,17,12.90
2019,09,21,00,18,12.90
2019,09,21,00,19,12.90
2019,09,21,00,20,12.90
2019,09,21,00,21,12.90
2019,09,21,00,22,12.90
2019,09,21,00,23,12.90
2019,09,21,00,24,13.00
2019,09,21,00,25,13.00
2019,09,21,00,26,13.00
2019,09,21,00,27,13.10
2019,09,21,00,28,13.10
2019,09,21,00,29,13.10
2019,09,21,00,30,13.20
2019,09,21,00,32,13.20
2019,09,21,00,33,13.20
2019,09,21,00,34,13.20
2019,09,21,00,35,13.20
2019,09,21,00,36,13.20
2019,09,21,00,37,13.30
2019,09,21,00,38,13.30
2019,09,21,00,39,13.30
2019,09,21,00,40,13.30
2019,09,21,00,41,13.30
2019,09,21,00,42,13.30
2019,09,21,00,43,13.30
2019,09,21,00,44,13.30
2019,09,21,00,45,13.30
2019,09,21,00,46,13.40
2019,09,21,00,47,13.40
2019,09,21,00,48,13.40
2019,09,21,00,49,13.40
2019,09,21,00,50,13.40
2019,09,21,00,51,13.40
2019,09,21,00,52,13.40
2019,09,21,00,53,13.40
2019,09,21,00,54,13.40
2019,09,21,00,55,13.40
2019,09,21,00,56,13.40
2019,09,21,00,57,13.40
2019,09,21,00,58,13.40
2019,09,21,00,59,13.40
2019,09,21,01,00,13.40
2019,09,21,01,01,13.40
2019,09,21,01,02,13.40
2019,09,21,01,03,13.40
2019,09,21,01,04,13.40
2019,09,21,01,05,13.40
2019,09,21,01,06,13.40
2019,09,21,01,07,13.40
2019,09,21,01,08,13.30
2019,09,21,01,09,13.30
2019,09,21,01,10,13.30
2019,09,21,01,11,13.30
2019,09,21,01,12,13.30
2019,09,21,01,13,13.30
2019,09,21,01,14,13.20
2019,09,21,01,15,13.20
2019,09,21,01,16,13.20
2019,09,21,01,17,13.20
2019,09,21,01,18,13.20
2019,09,21,01,19,13.20
2019,09,21,01,20,13.20
2019,09,21,01,21,13.20
2019,09,21,01,22,13.10
2019,09,21,01,23,13.10
2019,09,21,01,24,13.10
2019,09,21,01,25,13.10
2019,09,21,01,26,13.10
2019,09,21,01,27,13.10
2019,09,21,01,28,13.10
2019,09,21,01,29,13.10
2019,09,21,01,30,13.10
2019,09,21,01,31,13.00
2019,09,21,01,32,13.00
2019,09,21,01,33,13.00
2019,09,21,01,34,13.00
2019,09,21,01,35,12.90
2019,09,21,01,36,12.90
2019,09,21,01,37,12.90
2019,09,21,01,38,12.90
2019,09,21,01,39,12.90
2019,09,21,01,40,12.80
2019,09,21,01,41,12.80
2019,09,21,01,42,12.80
2019,09,21,01,43,12.80
2019,09,21,01,44,12.80
2019,09,21,01,45,12.80
2019,09,21,01,46,12.80
2019,09,21,01,47,12.80
2019,09,21,01,48,12.80
2019,09,21,01,49,12.80
2019,09,21,01,50,12.70
2019,09,21,01,51,12.70
2019,09,21,01,52,12.70
2019,09,21,01,53,12.70
2019,09,21,01,54,12.70
2019,09,21,01,55,12.70
2019,09,21,01,56,12.60
2019,09,21,01,57,12.60
2019,09,21,01,58,12.60
2019,09,21,01,59,12.60
2019,09,21,02,00,12.60
2019,09,21,02,01,12.60
2019,09,21,02,02,12.50
2019,09,21,02,03,12.50
2019,09,21,02,04,12.50
2019,09,21,02,05,12.50
2019,09,21,02,06,12.50
2019,09,21,02,07,12.50
2019,09,21,02,08,12.40
2019,09,21,02,09,12.40
2019,09,21,02,10,12.40
2019,09,21,02,11,12.40
2019,09,21,02,12,12.40
2019,09,21,02,13,12.30
2019,09,21,02,14,12.30
2019,09,21,02,15,12.30
2019,09,21,02,16,12.30
2019,09,21,02,17,12.30
2019,09,21,02,18,12.30
2019,09,21,02,19,12.30
2019,09,21,02,20,12.30
2019,09,21,02,21,12.30
2019,09,21,02,23,12.20
2019,09,21,02,24,12.20
2019,09,21,02,26,12.20
2019,09,21,02,27,12.20
2019,09,21,02,28,12.10
2019,09,21,02,29,12.10
2019,09,21,02,31,12.10
2019,09,21,02,32,12.10
2019,09,21,02,33,12.10
2019,09,21,02,34,12.00
2019,09,21,02,36,12.00
2019,09,21,02,37,12.00
2019,09,21,02,38,12.00
2019,09,21,02,39,12.00
2019,09,21,02,41,12.00
2019,09,21,02,42,12.00
2019,09,21,02,43,12.00
2019,09,21,02,44,12.00
2019,09,21,02,46,12.00
2019,09,21,02,47,12.00
2019,09,21,02,48,12.10
2019,09,21,02,49,12.10
2019,09,21,02,51,12.10
2019,09,21,02,52,12.10
2019,09,21,02,53,12.10
2019,09,21,02,54,12.00
2019,09,21,02,56,12.00
2019,09,21,02,57,12.00
2019,09,21,02,58,12.00
2019,09,21,02,59,11.90
2019,09,21,03,01,11.90
2019,09,21,03,02,11.90
2019,09,21,03,03,11.90
2019,09,21,03,04,11.80
2019,09,21,03,06,11.80
2019,09,21,03,07,11.80
2019,09,21,03,08,11.80
2019,09,21,03,09,11.80
2019,09,21,03,11,11.80
2019,09,21,03,12,11.80
2019,09,21,03,13,11.80
2019,09,21,03,14,11.80
2019,09,21,03,16,11.80
2019,09,21,03,17,11.80
2019,09,21,03,18,11.80
2019,09,21,03,19,11.80
2019,09,21,03,21,11.80
2019,09,21,03,22,11.80
2019,09,21,03,23,11.80
2019,09,21,03,24,11.80
2019,09,21,03,26,11.70
2019,09,21,03,27,11.70
2019,09,21,03,28,11.70
2019,09,21,03,29,11.70
2019,09,21,03,31,11.70
2019,09,21,03,32,11.70
2019,09,21,03,33,11.80
2019,09,21,03,34,11.80
2019,09,21,03,36,11.80
2019,09,21,03,37,11.90
2019,09,21,03,38,11.90
2019,09,21,03,39,11.90
2019,09,21,03,41,12.00
2019,09,21,03,42,12.00
2019,09,21,03,43,12.10
2019,09,21,03,44,12.10
2019,09,21,03,45,12.20
2019,09,21,03,46,12.20
2019,09,21,03,47,12.20
2019,09,21,03,48,12.20
2019,09,21,03,49,12.20
2019,09,21,03,50,12.20
2019,09,21,03,51,12.30
2019,09,21,03,52,12.30
2019,09,21,03,53,12.30
2019,09,21,03,54,12.30
2019,09,21,03,55,12.30
2019,09,21,03,56,12.30
2019,09,21,03,57,12.30
2019,09,21,03,58,12.30
2019,09,21,03,59,12.30
2019,09,21,04,00,12.30
2019,09,21,04,01,12.30
2019,09,21,04,02,12.20
2019,09,21,04,03,12.20
2019,09,21,04,04,12.20
2019,09,21,04,06,12.20
2019,09,21,04,07,12.20
2019,09,21,04,08,12.20
2019,09,21,04,09,12.20
2019,09,21,04,10,12.20
2019,09,21,04,11,12.20
2019,09,21,04,12,12.30
2019,09,21,04,13,12.30
2019,09,21,04,14,12.30
2019,09,21,04,15,12.30
2019,09,21,04,16,12.30
2019,09,21,04,17,12.30
2019,09,21,04,18,12.30
2019,09,21,04,19,12.30
2019,09,21,04,20,12.30
2019,09,21,04,21,12.30
2019,09,21,04,22,12.30
2019,09,21,04,23,12.30
2019,09,21,04,24,12.30
2019,09,21,04,25,12.30
2019,09,21,04,26,12.30
2019,09,21,04,27,12.30
2019,09,21,04,28,12.30
2019,09,21,04,29,12.30
2019,09,21,04,30,12.20
2019,09,21,04,31,12.20
2019,09,21,04,32,12.20
2019,09,21,04,33,12.20
2019,09,21,04,34,12.20
2019,09,21,04,35,12.20
2019,09,21,04,36,12.20
2019,09,21,04,37,12.10
2019,09,21,04,38,12.10
2019,09,21,04,39,12.10
2019,09,21,04,40,12.10
2019,09,21,04,41,12.10
2019,09,21,04,42,12.20
2019,09,21,04,43,12.20
2019,09,21,04,44,12.20
2019,09,21,04,45,12.20
2019,09,21,04,46,12.20
2019,09,21,04,47,12.20
2019,09,21,04,48,12.20
2019,09,21,04,49,12.20
2019,09,21,04,50,12.20
2019,09,21,04,51,12.20
2019,09,21,04,52,12.20
2019,09,21,04,53,12.20
2019,09,21,04,54,12.20
2019,09,21,04,55,12.20
2019,09,21,04,56,12.20
2019,09,21,04,57,12.20
2019,09,21,04,58,12.20
2019,09,21,04,59,12.20
2019,09,21,05,00,12.20
2019,09,21,05,01,12.20
2019,09,21,05,02,12.20
2019,09,21,05,03,12.20
2019,09,21,05,04,12.20
2019,09,21,05,05,12.20
2019,09,21,05,06,12.20
2019,09,21,05,07,12.20
2019,09,21,05,08,12.20
2019,09,21,05,09,12.20
2019,09,21,05,10,12.20
2019,09,21,05,11,12.20
2019,09,21,05,12,12.20
2019,09,21,05,13,12.20
2019,09,21,05,14,12.30
2019,09,21,05,15,12.30
2019,09,21,05,16,12.30
2019,09,21,05,17,12.30
2019,09,21,05,18,12.30
2019,09,21,05,19,12.30
2019,09,21,05,20,12.30
2019,09,21,05,21,12.30
2019,09,21,05,22,12.30
2019,09,21,05,23,12.30
2019,09,21,05,24,12.30
2019,09,21,05,25,12.30
2019,09,21,05,26,12.30
2019,09,21,05,27,12.30
2019,09,21,05,28,12.30
2019,09,21,05,29,12.30
2019,09,21,05,30,12.30
2019,09,21,05,31,12.30
2019,09,21,05,32,12.30
2019,09,21,05,33,12.30
2019,09,21,05,34,12.30
2019,09,21,05,35,12.30
2019,09,21,05,36,12.30
2019,09,21,05,37,12.30
2019,09,21,05,38,12.20
2019,09,21,05,39,12.20
2019,09,21,05,40,12.20
2019,09,21,05,41,12.20
2019,09,21,05,42,12.20
2019,09,21,05,43,12.20
2019,09,21,05,44,12.20
2019,09,21,05,45,12.20
2019,09,21,05,46,12.20
2019,09,21,05,47,12.10
2019,09,21,05,48,12.10
2019,09,21,05,49,12.10
2019,09,21,05,50,12.10
2019,09,21,05,51,12.10
2019,09,21,05,52,12.10
2019,09,21,05,53,12.10
2019,09,21,05,54,12.10
2019,09,21,05,55,12.10
2019,09,21,05,56,12.10
2019,09,21,05,57,12.10
2019,09,21,05,58,12.10
2019,09,21,05,59,12.20
2019,09,21,06,00,12.20
2019,09,21,06,01,12.20
2019,09,21,06,02,12.20
2019,09,21,06,03,12.20
2019,09,21,06,04,12.20
2019,09,21,06,05,12.30
2019,09,21,06,06,12.30
2019,09,21,06,07,12.30
2019,09,21,06,08,12.30
2019,09,21,06,09,12.30
2019,09,21,06,10,12.30
2019,09,21,06,11,12.30
2019,09,21,06,12,12.30
2019,09,21,06,13,12.30
2019,09,21,06,14,12.30
2019,09,21,06,15,12.30
2019,09,21,06,16,12.30
2019,09,21,06,17,12.30
2019,09,21,06,18,12.30
2019,09,21,06,19,12.30
2019,09,21,06,20,12.30
2019,09,21,06,21,12.30
2019,09,21,06,22,12.30
2019,09,21,06,23,12.30
2019,09,21,06,24,12.30
2019,09,21,06,25,12.30
2019,09,21,06,26,12.30
2019,09,21,06,27,12.30
2019,09,21,06,28,12.30
2019,09,21,06,29,12.30
2019,09,21,06,30,12.30
2019,09,21,06,32,12.40
2019,09,21,06,33,12.40
2019,09,21,06,34,12.40
2019,09,21,06,35,12.40
2019,09,21,06,36,12.40
2019,09,21,06,37,12.40
2019,09,21,06,38,12.40
2019,09,21,06,39,12.40
2019,09,21,06,40,12.40
2019,09,21,06,41,12.40
2019,09,21,06,42,12.40
2019,09,21,06,43,12.40
2019,09,21,06,44,12.40
2019,09,21,06,45,12.40
2019,09,21,06,46,12.40
2019,09,21,06,47,12.40
2019,09,21,06,48,12.40
2019,09,21,06,49,12.30
2019,09,21,06,50,12.30
2019,09,21,06,51,12.30
2019,09,21,06,52,12.30
2019,09,21,06,53,12.30
2019,09,21,06,54,12.30
2019,09,21,06,55,12.30
2019,09,21,06,56,12.30
2019,09,21,06,57,12.30
2019,09,21,06,58,12.30
2019,09,21,06,59,12.30
2019,09,21,07,00,12.30
2019,09,21,07,01,12.20
2019,09,21,07,02,12.20
2019,09,21,07,03,12.20
2019,09,21,07,04,12.20
2019,09,21,07,05,12.20
2019,09,21,07,06,12.20
2019,09,21,07,07,12.20
2019,09,21,07,08,12.10
2019,09,21,07,09,12.10
2019,09,21,07,11,12.10
2019,09,21,07,13,12.00
2019,09,21,07,14,12.00
2019,09,21,07,16,12.00
2019,09,21,07,17,12.00
2019,09,21,07,18,12.00
2019,09,21,07,19,12.00
2019,09,21,07,21,12.00
2019,09,21,07,22,12.00
2019,09,21,07,23,11.90
2019,09,21,07,24,11.90
2019,09,21,07,26,11.90
2019,09,21,07,27,11.90
2019,09,21,07,28,11.90
2019,09,21,07,29,11.90
2019,09,21,07,31,11.90
2019,09,21,07,32,11.90
2019,09,21,07,33,11.90
2019,09,21,07,34,11.90
2019,09,21,07,36,11.90
2019,09,21,07,37,11.90
2019,09,21,07,38,11.90
2019,09,21,07,39,11.90
2019,09,21,07,41,11.90
2019,09,21,07,42,11.90
2019,09,21,07,43,11.80
2019,09,21,07,44,11.80
2019,09,21,07,46,11.80
2019,09,21,07,47,11.80
2019,09,21,07,48,11.80
2019,09,21,07,49,11.80
2019,09,21,07,51,11.80
2019,09,21,07,52,11.80
2019,09,21,07,53,11.80
2019,09,21,07,54,11.80
2019,09,21,07,56,11.80
2019,09,21,07,57,11.80
2019,09,21,07,58,11.80
2019,09,21,07,59,11.80
2019,09,21,08,01,11.90
2019,09,21,08,02,11.90
2019,09,21,08,03,12.00
2019,09,21,08,04,12.00
2019,09,21,08,06,12.10
2019,09,21,08,07,12.10
2019,09,21,08,08,12.20
2019,09,21,08,09,12.20
2019,09,21,08,11,12.30
2019,09,21,08,12,12.30
2019,09,21,08,13,12.30
2019,09,21,08,14,12.30
2019,09,21,08,16,12.30
2019,09,21,08,17,12.30
2019,09,21,08,18,12.40
2019,09,21,08,19,12.40
2019,09,21,08,21,12.40
2019,09,21,08,22,12.40
2019,09,21,08,23,12.40
2019,09,21,08,24,12.40
2019,09,21,08,26,12.40
2019,09,21,08,27,12.40
2019,09,21,08,28,12.40
2019,09,21,08,29,12.40
2019,09,21,08,31,12.40
2019,09,21,08,32,12.40
2019,09,21,08,33,12.40
2019,09,21,08,34,12.40
2019,09,21,08,36,12.40
2019,09,21,08,37,12.40
2019,09,21,08,38,12.40
2019,09,21,08,39,12.40
2019,09,21,08,41,12.40
2019,09,21,08,42,12.40
2019,09,21,08,43,12.40
2019,09,21,08,44,12.40
2019,09,21,08,46,12.40
2019,09,21,08,47,12.50
2019,09,21,08,48,12.50
2019,09,21,08,49,12.50
2019,09,21,08,51,12.50
2019,09,21,08,52,12.50
2019,09,21,08,53,12.50
2019,09,21,08,54,12.50
2019,09,21,08,56,12.50
2019,09,21,08,57,12.50
2019,09,21,08,58,12.50
2019,09,21,08,59,12.50
2019,09,21,09,01,12.50
2019,09,21,09,02,12.50
2019,09,21,09,03,12.40
2019,09,21,09,04,12.40
2019,09,21,09,06,12.40
2019,09,21,09,07,12.40
2019,09,21,09,08,12.40
2019,09,21,09,09,12.40
2019,09,21,09,10,12.40
2019,09,21,09,11,12.40
2019,09,21,09,12,12.40
2019,09,21,09,13,12.50
2019,09,21,09,14,12.50
2019,09,21,09,15,12.50
2019,09,21,09,16,12.50
2019,09,21,09,17,12.50
2019,09,21,09,18,12.60
2019,09,21,09,19,12.60
2019,09,21,09,20,12.60
2019,09,21,09,21,12.60
2019,09,21,09,22,12.60
2019,09,21,09,23,12.70
2019,09,21,09,24,12.70
2019,09,21,09,25,12.70
2019,09,21,09,26,12.70
2019,09,21,09,27,12.70
2019,09,21,09,28,12.70
2019,09,21,09,29,12.70
2019,09,21,09,30,12.70
2019,09,21,09,31,12.70
2019,09,21,09,32,12.70
2019,09,21,09,33,12.80
2019,09,21,09,34,12.80
2019,09,21,09,35,12.80
2019,09,21,09,36,12.80
2019,09,21,09,37,12.80
2019,09,21,09,38,12.80
2019,09,21,09,39,12.80
2019,09,21,09,40,12.80
2019,09,21,09,41,12.80
2019,09,21,09,42,12.80
2019,09,21,09,43,12.90
2019,09,21,09,44,12.90
2019,09,21,09,45,12.90
2019,09,21,09,46,13.00
2019,09,21,09,47,13.00
2019,09,21,09,48,13.10
2019,09,21,09,49,13.10
2019,09,21,09,50,13.10
2019,09,21,09,51,13.20
2019,09,21,09,52,13.20
2019,09,21,09,53,13.30
2019,09,21,09,54,13.30
2019,09,21,09,55,13.30
2019,09,21,09,56,13.30
2019,09,21,09,57,13.40
2019,09,21,09,58,13.50
2019,09,21,09,59,13.60
2019,09,21,10,00,13.70
2019,09,21,10,01,13.70
2019,09,21,10,02,13.70
2019,09,21,10,03,13.80
2019,09,21,10,04,13.80
2019,09,21,10,05,13.90
2019,09,21,10,06,13.90
2019,09,21,10,07,14.00
2019,09,21,10,08,14.00
2019,09,21,10,09,14.10
2019,09,21,10,10,14.10
2019,09,21,10,11,14.10
2019,09,21,10,12,14.20
2019,09,21,10,13,14.20
2019,09,21,10,14,14.20
2019,09,21,10,15,14.30
2019,09,21,10,16,14.40
2019,09,21,10,17,14.40
2019,09,21,10,18,14.50
2019,09,21,10,19,14.60
2019,09,21,10,20,14.70
2019,09,21,10,21,14.70
2019,09,21,10,22,14.80
2019,09,21,10,23,14.80
2019,09,21,10,24,14.90
2019,09,21,10,25,15.00
2019,09,21,10,26,15.20
2019,09,21,10,27,15.30
2019,09,21,10,28,15.30
2019,09,21,10,29,15.30
2019,09,21,10,30,15.40
2019,09,21,10,31,15.40
2019,09,21,10,32,15.40
2019,09,21,10,33,15.40
2019,09,21,10,34,15.40
2019,09,21,10,35,15.40
2019,09,21,10,36,15.40
2019,09,21,10,37,15.40
2019,09,21,10,38,15.50
2019,09,21,10,39,15.50
2019,09,21,10,40,15.50
2019,09,21,10,41,15.60
2019,09,21,10,42,15.60
2019,09,21,10,43,15.60
2019,09,21,10,44,15.60
2019,09,21,10,45,15.70
2019,09,21,10,46,15.80
2019,09,21,10,47,15.80
2019,09,21,10,48,15.80
2019,09,21,10,49,15.90
2019,09,21,10,50,16.10
2019,09,21,10,51,16.20
2019,09,21,10,52,16.30
2019,09,21,10,53,16.30
2019,09,21,10,54,16.40
2019,09,21,10,55,16.40
2019,09,21,10,56,16.40
2019,09,21,10,57,16.40
2019,09,21,10,58,16.40
2019,09,21,10,59,16.40
2019,09,21,11,00,16.40
2019,09,21,11,01,16.40
2019,09,21,11,02,16.40
2019,09,21,11,03,16.40
2019,09,21,11,04,16.30
2019,09,21,11,05,16.30
2019,09,21,11,06,16.20
2019,09,21,11,07,16.20
2019,09,21,11,08,16.20
2019,09,21,11,09,16.10
2019,09,21,11,10,16.20
2019,09,21,11,11,16.20
2019,09,21,11,12,16.20
2019,09,21,11,13,16.20
2019,09,21,11,14,16.30
2019,09,21,11,15,16.30
2019,09,21,11,16,16.40
2019,09,21,11,17,16.40
2019,09,21,11,18,16.40
2019,09,21,11,19,16.60
2019,09,21,11,20,16.60
2019,09,21,11,21,16.60
2019,09,21,11,22,16.40
2019,09,21,11,23,16.40
2019,09,21,11,24,16.40
2019,09,21,11,25,16.40
2019,09,21,11,26,16.40
2019,09,21,11,27,16.40
2019,09,21,11,28,16.40
2019,09,21,11,29,16.40
2019,09,21,11,30,16.30
2019,09,21,11,31,16.20
2019,09,21,11,32,16.10
2019,09,21,11,33,15.90
2019,09,21,11,34,15.80
2019,09,21,11,35,15.80
2019,09,21,11,36,15.60
2019,09,21,11,37,15.50
2019,09,21,11,38,15.40
2019,09,21,11,39,15.30
2019,09,21,11,40,15.30
2019,09,21,11,41,15.20
2019,09,21,11,42,15.20
2019,09,21,11,43,15.10
2019,09,21,11,44,15.10
2019,09,21,11,45,15.00
2019,09,21,11,46,15.00
2019,09,21,11,47,15.00
2019,09,21,11,48,14.90
2019,09,21,11,49,14.90
2019,09,21,11,50,14.90
2019,09,21,11,51,14.90
2019,09,21,11,52,14.80
2019,09,21,11,53,14.80
2019,09,21,11,54,14.80
2019,09,21,11,55,14.80
2019,09,21,11,56,14.80
2019,09,21,11,57,14.80
2019,09,21,11,58,14.80
2019,09,21,11,59,14.80
2019,09,21,12,00,14.90
2019,09,21,12,01,14.90
2019,09,21,12,02,14.90
2019,09,21,12,03,15.00
2019,09,21,12,04,15.00
2019,09,21,12,05,15.00
2019,09,21,12,06,15.10
2019,09,21,12,07,15.10
2019,09,21,12,08,15.10
2019,09,21,12,09,15.20
2019,09,21,12,10,15.20
2019,09,21,12,11,15.20
2019,09,21,12,12,15.30
2019,09,21,12,13,15.30
2019,09,21,12,14,15.30
2019,09,21,12,15,15.30
2019,09,21,12,16,15.40
2019,09,21,12,17,15.40
2019,09,21,12,18,15.50
2019,09,21,12,19,15.50
2019,09,21,12,20,15.50
2019,09,21,12,21,15.50
2019,09,21,12,22,15.50
2019,09,21,12,23,15.50
2019,09,21,12,24,15.50
2019,09,21,12,25,15.50
2019,09,21,12,26,15.50
2019,09,21,12,27,15.50
2019,09,21,12,28,15.50
2019,09,21,12,29,15.50
2019,09,21,12,30,15.40
2019,09,21,12,32,15.40
2019,09,21,12,33,15.40
2019,09,21,12,34,15.40
2019,09,21,12,35,15.50
2019,09,21,12,36,15.50
2019,09,21,12,37,15.50
2019,09,21,12,38,15.50
2019,09,21,12,39,15.50
2019,09,21,12,40,15.50
2019,09,21,12,41,15.60
2019,09,21,12,42,15.60
2019,09,21,12,44,15.70
2019,09,21,12,46,15.70
2019,09,21,12,47,15.70
2019,09,21,12,48,15.70
2019,09,21,12,49,15.70
2019,09,21,12,51,15.70
2019,09,21,12,52,15.70
2019,09,21,12,53,15.60
2019,09,21,12,54,15.60
2019,09,21,12,56,15.50
2019,09,21,12,57,15.50
2019,09,21,12,58,15.50
2019,09,21,12,59,15.40
2019,09,21,13,01,15.40
2019,09,21,13,02,15.40
2019,09,21,13,03,15.40
2019,09,21,13,04,15.40
2019,09,21,13,06,15.30
2019,09,21,13,07,15.30
2019,09,21,13,08,15.30
2019,09,21,13,09,15.30
2019,09,21,13,11,15.20
2019,09,21,13,12,15.20
2019,09,21,13,13,15.20
2019,09,21,13,14,15.10
2019,09,21,13,16,15.10
2019,09,21,13,17,15.10
2019,09,21,13,18,15.10
2019,09,21,13,19,15.10
2019,09,21,13,21,15.10
2019,09,21,13,22,15.10
2019,09,21,13,23,15.10
2019,09,21,13,24,15.20
2019,09,21,13,26,15.20
2019,09,21,13,27,15.20
2019,09,21,13,28,15.30
2019,09,21,13,29,15.30
2019,09,21,13,31,15.30
2019,09,21,13,32,15.40
2019,09,21,13,33,15.40
2019,09,21,13,34,15.40
2019,09,21,13,36,15.40
2019,09,21,13,37,15.40
2019,09,21,13,38,15.40
2019,09,21,13,39,15.40
2019,09,21,13,41,15.30
2019,09,21,13,42,15.30
2019,09,21,13,43,15.30
2019,09,21,13,44,15.30
2019,09,21,13,46,15.30
2019,09,21,13,47,15.30
2019,09,21,13,48,15.30
2019,09,21,13,49,15.30
2019,09,21,13,51,15.20
2019,09,21,13,52,15.20
2019,09,21,13,53,15.20
2019,09,21,13,54,15.20
2019,09,21,13,56,15.20
2019,09,21,13,57,15.20
2019,09,21,13,58,15.20
2019,09,21,13,59,15.20
2019,09,21,14,01,15.20
2019,09,21,14,02,15.20
2019,09,21,14,03,15.30
2019,09,21,14,04,15.30
2019,09,21,14,06,15.30
2019,09,21,14,07,15.30
2019,09,21,14,08,15.30
2019,09,21,14,09,15.30
2019,09,21,14,11,15.30
2019,09,21,14,12,15.30
2019,09,21,14,13,15.30
2019,09,21,14,14,15.30
2019,09,21,14,16,15.30
2019,09,21,14,17,15.30
2019,09,21,14,18,15.30
2019,09,21,14,19,15.30
2019,09,21,14,21,15.30
2019,09,21,14,22,15.30
2019,09,21,14,23,15.30
2019,09,21,14,24,15.30
2019,09,21,14,25,15.30
2019,09,21,14,26,15.30
2019,09,21,14,27,15.30
2019,09,21,14,28,15.20
2019,09,21,14,29,15.20
2019,09,21,14,31,15.10
2019,09,21,14,32,15.10
2019,09,21,14,33,15.10
2019,09,21,14,34,15.10
2019,09,21,14,36,15.10
2019,09,21,14,37,15.10
2019,09,21,14,38,15.10
2019,09,21,14,39,15.20
2019,09,21,14,40,15.20
2019,09,21,14,41,15.20
2019,09,21,14,42,15.30
2019,09,21,14,43,15.30
2019,09,21,14,44,15.30
2019,09,21,14,45,15.30
2019,09,21,14,46,15.30
2019,09,21,14,47,15.30
2019,09,21,14,48,15.40
2019,09,21,14,49,15.40
2019,09,21,14,50,15.50
2019,09,21,14,51,15.50
2019,09,21,14,52,15.50
2019,09,21,14,53,15.50
2019,09,21,14,54,15.50
2019,09,21,14,55,15.50
2019,09,21,14,56,15.50
2019,09,21,14,57,15.40
2019,09,21,14,58,15.40
2019,09,21,14,59,15.40
2019,09,21,15,00,15.30
2019,09,21,15,01,15.30
2019,09,21,15,02,15.30
2019,09,21,15,03,15.20
2019,09,21,15,04,15.20
2019,09,21,15,05,15.10
2019,09,21,15,06,15.10
2019,09,21,15,07,15.00
2019,09,21,15,08,15.00
2019,09,21,15,09,15.00
2019,09,21,15,10,14.90
2019,09,21,15,11,14.90
2019,09,21,15,12,14.90
2019,09,21,15,13,14.90
2019,09,21,15,14,14.90
2019,09,21,15,15,14.90
2019,09,21,15,16,14.90
2019,09,21,15,17,14.90
2019,09,21,15,18,14.90
2019,09,21,15,19,14.90
2019,09,21,15,20,14.90
2019,09,21,15,21,15.00
2019,09,21,15,22,15.00
2019,09,21,15,23,15.10
2019,09,21,15,24,15.10
2019,09,21,15,25,15.20
2019,09,21,15,26,15.20
2019,09,21,15,27,15.20
2019,09,21,15,28,15.30
2019,09,21,15,29,15.30
2019,09,21,15,30,15.30
2019,09,21,15,31,15.30
2019,09,21,15,32,15.30
2019,09,21,15,33,15.30
2019,09,21,15,34,15.30
2019,09,21,15,35,15.30
2019,09,21,15,36,15.30
2019,09,21,15,37,15.20
2019,09,21,15,38,15.20
2019,09,21,15,39,15.10
2019,09,21,15,40,15.10
2019,09,21,15,41,15.00
2019,09,21,15,42,14.90
2019,09,21,15,43,14.90
2019,09,21,15,44,14.80
2019,09,21,15,45,14.80
2019,09,21,15,46,14.80
2019,09,21,15,47,14.80
2019,09,21,15,48,14.80
2019,09,21,15,49,14.80
2019,09,21,15,50,14.80
2019,09,21,15,51,14.80
2019,09,21,15,52,14.80
2019,09,21,15,53,14.90
2019,09,21,15,54,14.90
2019,09,21,15,55,14.90
2019,09,21,15,56,15.00
2019,09,21,15,57,15.00
2019,09,21,15,58,15.10
2019,09,21,15,59,15.10
2019,09,21,16,00,15.20
2019,09,21,16,01,15.20
2019,09,21,16,02,15.30
2019,09,21,16,03,15.30
2019,09,21,16,04,15.40
2019,09,21,16,05,15.50
2019,09,21,16,06,15.50
2019,09,21,16,07,15.60
2019,09,21,16,08,15.70
2019,09,21,16,09,15.80
2019,09,21,16,10,15.80
2019,09,21,16,11,15.80
2019,09,21,16,12,15.80
2019,09,21,16,13,15.80
2019,09,21,16,14,15.80
2019,09,21,16,15,15.80
2019,09,21,16,16,15.80
2019,09,21,16,17,15.80
2019,09,21,16,18,15.80
2019,09,21,16,19,15.80
2019,09,21,16,20,15.80
2019,09,21,16,21,15.80
2019,09,21,16,22,15.80
2019,09,21,16,23,15.80
2019,09,21,16,24,15.80
2019,09,21,16,25,15.80
2019,09,21,16,26,15.70
2019,09,21,16,27,15.70
2019,09,21,16,28,15.70
2019,09,21,16,29,15.80
2019,09,21,16,30,15.80
2019,09,21,16,31,15.80
2019,09,21,16,32,15.80
2019,09,21,16,33,15.80
2019,09,21,16,34,15.90
2019,09,21,16,35,15.90
2019,09,21,16,36,16.10
2019,09,21,16,37,16.10
2019,09,21,16,38,16.10
2019,09,21,16,39,16.10
2019,09,21,16,40,16.20
2019,09,21,16,41,16.20
2019,09,21,16,42,16.30
2019,09,21,16,43,16.30
2019,09,21,16,44,16.30
2019,09,21,16,45,16.30
2019,09,21,16,46,16.40
2019,09,21,16,47,16.40
2019,09,21,16,48,16.40
2019,09,21,16,49,16.40
2019,09,21,16,50,16.40
2019,09,21,16,51,16.40
2019,09,21,16,52,16.40
2019,09,21,16,53,16.40
2019,09,21,16,54,16.40
2019,09,21,16,55,16.40
2019,09,21,16,56,16.40
2019,09,21,16,57,16.40
2019,09,21,16,58,16.40
2019,09,21,16,59,16.40
2019,09,21,17,00,16.40
2019,09,21,17,01,16.40
2019,09,21,17,02,16.40
2019,09,21,17,03,16.40
2019,09,21,17,04,16.40
2019,09,21,17,05,16.40
2019,09,21,17,06,16.40
2019,09,21,17,07,16.40
2019,09,21,17,08,16.40
2019,09,21,17,09,16.40
2019,09,21,17,10,16.30
2019,09,21,17,11,16.30
2019,09,21,17,12,16.20
2019,09,21,17,13,16.20
2019,09,21,17,14,16.20
2019,09,21,17,15,16.10
2019,09,21,17,16,16.10
2019,09,21,17,17,16.10
2019,09,21,17,18,16.10
2019,09,21,17,19,16.10
2019,09,21,17,20,16.10
2019,09,21,17,21,16.10
2019,09,21,17,22,16.10
2019,09,21,17,23,16.10
2019,09,21,17,24,16.10
2019,09,21,17,25,16.10
2019,09,21,17,26,15.90
2019,09,21,17,27,15.90
2019,09,21,17,28,15.90
2019,09,21,17,29,15.90
2019,09,21,17,30,15.90
2019,09,21,17,31,15.90
2019,09,21,17,32,15.90
2019,09,21,17,33,15.90
2019,09,21,17,34,15.90
2019,09,21,17,35,15.90
2019,09,21,17,36,15.90
2019,09,21,17,37,15.80
2019,09,21,17,38,15.80
2019,09,21,17,39,15.80
2019,09,21,17,41,15.80
2019,09,21,17,42,15.80
2019,09,21,17,43,15.80
2019,09,21,17,44,15.80
2019,09,21,17,46,15.80
2019,09,21,17,47,15.80
2019,09,21,17,48,15.80
2019,09,21,17,49,15.80
2019,09,21,17,51,15.80
2019,09,21,17,52,15.80
2019,09,21,17,53,15.80
2019,09,21,17,54,15.80
2019,09,21,17,56,15.80
2019,09,21,17,57,15.80
2019,09,21,17,58,15.80
2019,09,21,17,59,15.80
2019,09,21,18,01,15.80
2019,09,21,18,02,15.80
2019,09,21,18,03,15.80
2019,09,21,18,04,15.70
2019,09,21,18,06,15.70
2019,09,21,18,07,15.70
2019,09,21,18,08,15.70
2019,09,21,18,09,15.70
2019,09,21,18,11,15.70
2019,09,21,18,12,15.70
2019,09,21,18,13,15.70
2019,09,21,18,14,15.70
2019,09,21,18,16,15.70
2019,09,21,18,17,15.70
2019,09,21,18,18,15.70
2019,09,21,18,19,15.70
2019,09,21,18,21,15.60
2019,09,21,18,22,15.60
2019,09,21,18,23,15.60
2019,09,21,18,24,15.60
2019,09,21,18,26,15.50
2019,09,21,18,27,15.50
2019,09,21,18,28,15.50
2019,09,21,18,29,15.40
2019,09,21,18,30,15.40
2019,09,21,18,32,15.30
2019,09,21,18,33,15.20
2019,09,21,18,34,15.20
2019,09,21,18,36,15.00
2019,09,21,18,37,15.00
2019,09,21,18,38,14.90
2019,09,21,18,39,14.80
2019,09,21,18,41,14.80